{"data":{"norad_id":65318,"intl_designator":"2025-188D","name":"CAPELLA-16 (ACADIA-6)","alt_names":[],"object_type":"PAYLOAD","status":"ACTIVE","operator":null,"country":"US","launch_date":"2025-08-26","launch_site_code":"AFWTR","launch_vehicle":null,"mission":null,"orbit_class":"UNKNOWN","rcs_meters":null,"size_class":null,"mass_kg":null,"dimensions":null,"purposes":[],"wikipedia_slug":null,"has_3d_model":false,"image_url":null,"decayed_at":null,"tle_current":{"epoch":"2026-05-25T04:28:14.116800Z","epoch_age_seconds":62519,"freshness":"FRESH","line1":"1 65318U 25188D   26145.18627450  .00005852  00000+0  54795-3 0  9990","line2":"2 65318  97.7385 220.6733 0002921 333.5085  26.5986 14.94438211 40487","mean_motion":14.94438211,"eccentricity":0.0002921,"inclination_deg":97.7385,"raan_deg":220.6733,"arg_perigee_deg":333.5085,"mean_anomaly_deg":26.5986,"bstar":0.00054795,"rev_number":4048,"period_min":96.357279237154,"perigee_km":582.0833632907,"apogee_km":586.15071209952,"semimajor_km":6962.2540376951,"source":"CELESTRAK","updated_at":"2026-05-25T13:38:05.323920Z"}}}